星链-5267 (STARLINK-5267 )

导读 | 星芒AI

STARLINK-5267 是 SpaceX Starlink 项目中的一颗低轨通信卫星,属于该星座的多个批次之一。该卫星旨在为全球用户提供高速互联网服务,尤其关注网络覆盖不足的地区。它运行在约 550 公里的轨道高度,采用先进的通信技术,支持高带宽和低延迟传输。STARLINK-5267 与其它 Starlink 卫星共同构建了一个庞大的卫星网络,以实现全球范围内的宽带接入。该卫星于 2022 年发射,是 SpaceX 扩展其全球互联网服务计划的一部分。

基本信息
目录编号:
55655
目录名称:
STARLINK-5267
国际标识:
2023-021AD
轨道中心:
EARTH
卫星名称:
星链-5267
卫星全名:
星链-5267 (STARLINK-5267 )
卫星状态:
在轨 (已飞行991 天)
发射日期:
2023-02-17 UTC
国别 :
美国 (US)
星等 :
--
轨道信息
数据来源 国际轨道数据 AOE轨道数据
星历时间 2025-11-04T12:38:20+0800
15小时前
查看轨道信息
2025-10-30T04:00:00+0800
6天前
查看轨道信息
半长轴 6950.189km 6950.155km
偏心率 0.0002931 0.0002945
轨道倾角 69.998° 69.999°
近地点辐角 271.287° 273.654°
升交点赤经 120.988° 134.502°
平近点角 88.795° 343.165°
近地点 570.016km 569.973km
远地点 574.092km 574.067km
周期 96.107分钟 96.106分钟
每日圈数 14.983314 14.983425
详细信息
固有亮度:
5
最大亮度:
2.5
卫星平台:
Starlink v1.5
覆盖范围:
全球
运营商:
太空探索技术公司
运营商所在国:
美国
制造商(研发单位):
太空探索技术公司
制造商所在国:
美国
使用方式:
暂无
卫星简介
星链(Starlink)计划是由太空探索技术公司(SpaceX)提出的一个巨型低轨卫星互联网星座项目,计划在2019年至2024年间在太空搭建由约1.2万颗卫星组成的“星链”网络,其中1584颗将部署在地球上空550千米处的近地轨道,并从2020年开始工作。该卫星仍在工作。
2D轨道图
3D轨道图
轨道高度分析图
轨道倾角分析图
轨道综合分析图
查看轨道综合分析图